Starlink 36534

operational
NORAD ID: 67496 Int'l Des: 2026-012 Owner: SPXS Country: US Constellation: starlink
LEOCIRCULAR

About Starlink 36534

Description loading...

Live Position

Loading 3D Globe...

Upcoming Passes

Altitude History

Altitude vs Time

uPlot chart will show altitude changes over time

Two-Line Element Set

1 67496U 26012D 26066.09986931 .00028233 00000-0 10315-2 0 9998
2 67496 43.0007 329.2143 0001522 256.9260 103.1422 15.27581338 7364
Epoch: Mar 7, 2026 • Age: 16 hours

Current Status

Altitude 482.1 km
Velocity 7.63 km/s
Sub-Earth Point 10.99°N, 93.8°E
Launch Date Jan 18, 2026
Age 0.1 years
Type internet

Technical Details

Classification Payload
Mass 575.00 kg
Dry Mass 530.00 kg
Total Mass 575.00 kg
Length 0.30 m
Diameter 4.10 m
Span 29.00 m
Shape Box + pan
Manufacturer SPXS
Bus Type Starlink V2MO
Phase Status In Orbit
Owner/State SPXS/US

Large Constellations

Loading constellations...